Location: Fiennes
(50.8274°N, 1.8253°E)
Time: 03:38:27
(UTC+00:00)

Cosmos 1707 - Pass Details

Date: 15 May 2026
Orbit: 333 x 335 km, 82.5° (Epoch: 8 June)

Event Time Altitude Azimuth Distance (km) Brightness Sun altitude
Exits shadow 22:20:42 69° 190° (S) 393 1.8 -17.5°
Maximum altitude 22:21:01 90° 350° (N) 368 1.8 -17.5°
Drops below altitude 10° 22:23:53 11° 10° (N) 1,325 5.6 -17.7°
Sets 22:25:56 0° 11° (N) 2,208 6.9 -17.8°
